Belgrade Nikola Tesla, Serbia

10:23 PM CEST on April 23, 2017 (GMT +0200)
Belgrade

Weather History for LYBE - January, 2012

Change the Weather History Date:

Thursday, January 5, 2012

  Actual Average Record
Temperature  
Mean Temperature 37 °F -  
Max Temperature 48 °F 38 °F 58 °F (2014)
Min Temperature 26 °F 26 °F 6 °F (2002)
Degree Days  
Heating Degree Days 28    
Moisture  
Dew Point 35 °F    
Average Humidity 71    
Maximum Humidity 81    
Minimum Humidity 49    
Precipitation  
Precipitation 0.16 in - - ()
Sea Level Pressure  
Sea Level Pressure 29.73 in    
Wind  
Wind Speed 6 mph ()    
Max Wind Speed 14 mph    
Max Gust Speed -    
Visibility 7.7 miles    
Events Rain    
Averages and records for this station are not official NWS values.
T = Trace of Precipitation, MM = Missing Value Source: Averaged Metar Reports

Daily Weather History Graph

Daily Weather History Graph

Search for Another Location

Airport or City:

Trip Planner

Search our weather history database for the weather conditions in past years. The results will help you decide how hot, cold, wet, or windy it might be!

Date:

Astronomy

Jan. 05, 2012 Rise Set
Actual Time 7:16 AM CET 4:11 PM CET
Civil Twilight 6:43 AM CET 4:45 PM CET
Nautical Twilight 6:06 AM CET 5:21 PM CET
Astronomical Twilight 5:30 AM CET 5:57 PM CET
Moon 1:02 PM CET (1/5) 3:43 AM CET (1/5)
Length of Visible Light 10h 02m
Length of Day
8h 55m
Waxing Gibbous, 86% of the Moon is Illuminated
Jan 5
Waxing Gibbous
Jan 9
Full
Jan 16
Last Quarter
Jan 23
New
Jan 31
First Quarter

Hourly Weather History & Observations

Time (CET) Temp. Windchill Dew Point Humidity Pressure Visibility Wind Dir Wind Speed Gust Speed Precip Events Conditions
12:00 AM 42.8 °F 37.5 °F 37.4 °F 81% 30.09 in - West 9.2 mph - N/A   Clear
12:30 AM 42.8 °F 38.6 °F 35.6 °F 76% 30.09 in - West 6.9 mph - N/A   Clear
1:00 AM 42.8 °F 38.0 °F 35.6 °F 76% 30.09 in - WNW 8.1 mph - N/A   Clear
1:30 AM 41.0 °F 36.4 °F 35.6 °F 81% 30.09 in - West 6.9 mph - N/A   Clear
2:00 AM 41.0 °F 35.8 °F 35.6 °F 81% 30.09 in - West 8.1 mph - N/A   Clear
2:30 AM 42.8 °F 39.3 °F 35.6 °F 76% 30.09 in - WNW 5.8 mph - N/A   Clear
3:00 AM 41.0 °F 36.4 °F 33.8 °F 76% 30.09 in - WNW 6.9 mph - N/A   Clear
3:30 AM 41.0 °F 37.1 °F 33.8 °F 76% 30.09 in - West 5.8 mph - N/A   Clear
4:00 AM 40 °F - 34 °F 73% 30.10 in 9 mi West 4.5 mph - -   Mostly Cloudy
4:00 AM 39.2 °F 35.0 °F 33.8 °F 81% 30.06 in - West 5.8 mph - N/A   Clear
4:30 AM 39.2 °F 35.9 °F 33.8 °F 81% 30.06 in - West 4.6 mph - N/A   Clear
5:00 AM 41.0 °F 38.0 °F 32.0 °F 70% 30.04 in - WSW 4.6 mph - N/A   Clear
5:30 AM 41.0 °F 38.0 °F 32.0 °F 70% 30.04 in - SSW 4.6 mph - N/A   Clear
6:00 AM 39.2 °F 35.0 °F 33.8 °F 81% 30.01 in - SSW 5.8 mph - N/A   Clear
6:30 AM 39.2 °F 37.0 °F 32.0 °F 75% 30.01 in - SW 3.5 mph - N/A   Clear
7:00 AM 40 °F - 33 °F 66% 30.01 in 9 mi SSW 4.5 mph - -   Mostly Cloudy
7:00 AM 39.2 °F 35.9 °F 32.0 °F 75% 29.98 in - SSW 4.6 mph - N/A   Clear
7:30 AM 39.2 °F 34.2 °F 33.8 °F 81% 29.98 in - South 6.9 mph - N/A   Clear
8:00 AM 41.0 °F 36.4 °F 33.8 °F 76% 29.95 in - South 6.9 mph - N/A   Clear
8:30 AM 41.0 °F 38.0 °F 32.0 °F 70% 29.95 in - SSE 4.6 mph - N/A   Clear
9:00 AM 41.0 °F 37.1 °F 33.8 °F 76% 29.92 in - SSE 5.8 mph - N/A   Clear
9:30 AM 41.0 °F 36.4 °F 33.8 °F 76% 29.89 in - SSE 6.9 mph - N/A   Clear
10:00 AM 42 °F - 34 °F 64% 29.89 in 9 mi SE 4.5 mph - -   Mostly Cloudy
10:00 AM 42.8 °F 38.6 °F 33.8 °F 70% 29.86 in - SE 6.9 mph - N/A   Clear
10:30 AM 42.8 °F 38.6 °F 33.8 °F 70% 29.83 in - SSE 6.9 mph - N/A   Clear
11:00 AM 42.8 °F 38.0 °F 32.0 °F 66% 29.80 in - SE 8.1 mph - N/A   Clear
11:30 AM 44.6 °F 38.1 °F 32.0 °F 61% 29.74 in - SE 13.8 mph - N/A   Clear
12:00 PM 44.6 °F 39.7 °F 32.0 °F 61% 29.71 in - SSE 9.2 mph - N/A   Clear
12:30 PM 46.4 °F 41.1 °F 32.0 °F 57% 29.68 in - South 11.5 mph - N/A   Clear
1:00 PM 46 °F - 33 °F 49% 29.68 in 12 mi South 8.9 mph - -   Partly Cloudy
1:00 PM 46.4 °F 41.5 °F 32.0 °F 57% 29.65 in - South 10.4 mph - N/A   Clear
1:30 PM 46.4 °F 41.9 °F 33.8 °F 62% 29.62 in - South 9.2 mph - N/A   Clear
2:00 PM 46.4 °F 41.5 °F 33.8 °F 62% 29.59 in - South 10.4 mph - N/A   Clear
2:30 PM 48.2 °F - 35.6 °F 62% 29.56 in - South 10.4 mph - N/A   Clear
3:00 PM 48.2 °F - 35.6 °F 62% 29.56 in - South 9.2 mph - N/A   Clear
3:30 PM 48.2 °F - 35.6 °F 62% 29.53 in - South 6.9 mph - N/A   Clear
4:00 PM 46 °F - 36 °F 57% 29.54 in 12 mi SSE 6.7 mph - -   Scattered Clouds
4:00 PM 46.4 °F 42.9 °F 35.6 °F 66% 29.50 in - SSE 6.9 mph - N/A   Clear
4:30 PM 44.6 °F 40.7 °F 35.6 °F 71% 29.50 in - SE 6.9 mph - N/A   Clear
5:00 PM 42.8 °F 38.6 °F 35.6 °F 76% 29.47 in - SE 6.9 mph - N/A   Clear
5:30 PM 44.6 °F 40.2 °F 35.6 °F 71% 29.44 in - SSE 8.1 mph - N/A   Clear
6:00 PM 46.4 °F 42.9 °F 35.6 °F 66% 29.44 in - SSE 6.9 mph - N/A   Clear
6:30 PM 48.2 °F - 35.6 °F 62% 29.42 in - South 8.1 mph - N/A   Clear
7:00 PM 47 °F - 36 °F 54% 29.43 in 12 mi South 6.7 mph - -   Partly Cloudy
7:00 PM 48.2 °F - 37.4 °F 66% 29.42 in 6.2 mi South 5.8 mph - N/A   Scattered Clouds
7:30 PM 46.4 °F 42.9 °F 39.2 °F 76% 29.42 in 6.2 mi SW 6.9 mph - N/A Rain Light Rain
8:00 PM 46.4 °F 43.5 °F 39.2 °F 76% 29.39 in 6.2 mi SSW 5.8 mph - N/A Rain Light Rain
8:30 PM 48.2 °F - 39.2 °F 71% 29.39 in 6.2 mi South 5.8 mph - N/A Rain Light Rain
9:00 PM 46.4 °F 43.5 °F 39.2 °F 76% 29.39 in 6.2 mi SSE 5.8 mph - N/A Rain Light Rain
9:30 PM 46.4 °F 42.9 °F 39.2 °F 76% 29.39 in 6.2 mi South 6.9 mph - N/A Rain Light Rain
10:00 PM 47 °F - 40 °F 71% 29.38 in 6 mi South 4.5 mph - - Rain Light Rain
10:00 PM 46.4 °F 43.5 °F 41.0 °F 81% 29.36 in 6.2 mi SSE 5.8 mph - N/A Rain Light Rain
10:30 PM 46.4 °F 42.4 °F 41.0 °F 81% 29.36 in 6.2 mi South 8.1 mph - N/A Rain Light Rain
11:00 PM 46.4 °F 42.4 °F 41.0 °F 81% 29.36 in 6.2 mi SSW 8.1 mph - N/A Rain Light Rain
11:30 PM 46.4 °F 42.4 °F 41.0 °F 81% 29.36 in 6.2 mi SSW 8.1 mph - N/A Rain Light Rain